| time (UTC) | temp C | wind direction | speed KPH | gust KPH | rain 1hr cm | rain 24hr cm | rain mn cm | humidity % | barometer mb |
| 20260509181018 | 23 | 49 | 6.4 | 12.9 | 0.00 | 0.00 | 0.00 | 13 | 1020.0 |
| 20260509180513 | 22 | 257 | 3.2 | 11.3 | 0.00 | 0.00 | 0.00 | 13 | 1020.2 |
| 20260509180028 | 22 | 340 | 6.4 | 11.3 | 0.00 | 0.00 | 0.00 | 13 | 1020.4 |
| 20260509175523 | 22 | 54 | 3.2 | 17.7 | 0.00 | 0.00 | 0.00 | 13 | 1020.3 |
| 20260509175017 | 22 | 44 | 11.3 | 17.7 | 0.00 | 0.00 | 0.00 | 13 | 1020.6 |
| 20260509174511 | 22 | 327 | 3.2 | 12.9 | 0.00 | 0.00 | 0.00 | 13 | 1020.5 |
| 20260509174025 | 22 | 302 | 4.8 | 12.9 | 0.00 | 0.00 | 0.00 | 14 | 1020.4 |
| 20260509173518 | 22 | 346 | 8.0 | 16.1 | 0.00 | 0.00 | 0.00 | 14 | 1020.4 |
| 20260509173033 | 22 | 82 | 6.4 | 17.7 | 0.00 | 0.00 | 0.00 | 13 | 1020.6 |
| 20260509172544 | 22 | 124 | 4.8 | 17.7 | 0.00 | 0.00 | 0.00 | 14 | 1020.5 |
| 20260509172017 | 22 | 39 | 6.4 | 30.6 | 0.00 | 0.00 | 0.00 | 14 | 1020.6 |
| 20260509171511 | 22 | 43 | 8.0 | 17.7 | 0.00 | 0.00 | 0.00 | 14 | 1020.6 |
| 20260509171028 | 22 | 304 | 3.2 | 25.7 | 0.00 | 0.00 | 0.00 | 14 | 1020.6 |
| 20260509170522 | 22 | 64 | 14.5 | 25.7 | 0.00 | 0.00 | 0.00 | 13 | 1020.5 |
| 20260509170016 | 22 | 58 | 4.8 | 12.9 | 0.00 | 0.00 | 0.00 | 14 | 1021.0 |
| 20260509165509 | 22 | 208 | 6.4 | 12.9 | 0.00 | 0.00 | 0.00 | 14 | 1020.7 |
| 20260509165023 | 23 | 309 | 6.4 | 12.9 | 0.00 | 0.00 | 0.00 | 14 | 1020.8 |
| 20260509164528 | 23 | 250 | 6.4 | 19.3 | 0.00 | 0.00 | 0.00 | 17 | 1020.6 |
| 20260509164013 | 22 | 150 | 9.7 | 19.3 | 0.00 | 0.00 | 0.00 | 17 | 1020.5 |
| 20260509163528 | 22 | 145 | 6.4 | 17.7 | 0.00 | 0.00 | 0.00 | 18 | 1020.6 |
| 20260509163021 | 22 | 59 | 6.4 | 17.7 | 0.00 | 0.00 | 0.00 | 19 | 1020.8 |
| 20260509162535 | 22 | 159 | 6.4 | 19.3 | 0.00 | 0.00 | 0.00 | 17 | 1020.7 |
| 20260509162025 | 22 | 350 | 6.4 | 20.9 | 0.00 | 0.00 | 0.00 | 16 | 1020.8 |
| 20260509161522 | 22 | 55 | 6.4 | 20.9 | 0.00 | 0.00 | 0.00 | 15 | 1020.7 |
| 20260509161017 | 21 | 300 | 6.4 | 16.1 | 0.00 | 0.00 | 0.00 | 16 | 1020.6 |
| 20260509160510 | 21 | 280 | 8.0 | 16.1 | 0.00 | 0.00 | 0.00 | 15 | 1020.8 |
| 20260509160024 | 21 | 91 | 4.8 | 12.9 | 0.00 | 0.00 | 0.00 | 17 | 1020.6 |
| 20260509155517 | 21 | 360 | 4.8 | 19.3 | 0.00 | 0.00 | 0.00 | 19 | 1020.7 |
| 20260509155010 | 21 | 210 | 8.0 | 19.3 | 0.00 | 0.00 | 0.00 | 17 | 1020.6 |
| 20260509154524 | 21 | 45 | 4.8 | 8.0 | 0.00 | 0.00 | 0.00 | 19 | 1020.7 |
| 20260509154021 | 20 | 89 | 4.8 | 12.9 | 0.00 | 0.00 | 0.00 | 20 | 1020.6 |
| 20260509153514 | 20 | 178 | 3.2 | 12.9 | 0.00 | 0.00 | 0.00 | 22 | 1020.6 |
| 20260509153028 | 20 | 308 | 3.2 | 11.3 | 0.00 | 0.00 | 0.00 | 22 | 1020.6 |
| 20260509152522 | 19 | 126 | 1.6 | 14.5 | 0.00 | 0.00 | 0.00 | 23 | 1020.7 |
| 20260509152015 | 19 | 83 | 1.6 | 6.4 | 0.00 | 0.00 | 0.00 | 24 | 1020.6 |
| 20260509151528 | 19 | 49 | 1.6 | 4.8 | 0.00 | 0.00 | 0.00 | 25 | 1020.8 |
| 20260509151022 | 18 | 46 | 1.6 | 9.7 | 0.00 | 0.00 | 0.00 | 24 | 1020.8 |
| 20260509150515 | 18 | 146 | 1.6 | 9.7 | 0.00 | 0.00 | 0.00 | 24 | 1020.9 |
| 20260509150048 | 18 | 49 | 4.8 | 6.4 | 0.00 | 0.00 | 0.00 | 25 | 1020.9 |
| 20260509145521 | 18 | 155 | 1.6 | 8.0 | 0.00 | 0.00 | 0.00 | 26 | 1020.9 |
| 20260509145019 | 18 | 155 | 6.4 | 9.7 | 0.00 | 0.00 | 0.00 | 25 | 1020.9 |
| 20260509144514 | 18 | 129 | 3.2 | 6.4 | 0.00 | 0.00 | 0.00 | 26 | 1021.0 |
| 20260509144010 | 18 | 53 | 3.2 | 4.8 | 0.00 | 0.00 | 0.00 | 27 | 1021.1 |
| 20260509143545 | 17 | 151 | 1.6 | 8.0 | 0.00 | 0.00 | 0.00 | 27 | 1020.9 |
| 20260509143011 | 17 | 136 | 3.2 | 8.0 | 0.00 | 0.00 | 0.00 | 27 | 1020.9 |
| 20260509033126 | 17 | 5 | 4.8 | 6.4 | 0.00 | 0.00 | 0.00 | 23 | 1019.4 |
| 20260509032639 | 17 | 313 | 0.0 | 0.0 | 0.00 | 0.00 | 0.00 | 22 | 1019.4 |
| 20260509032134 | 17 | 313 | 0.0 | 0.0 | 0.00 | 0.00 | 0.00 | 23 | 1019.3 |
| 20260509031647 | 18 | 313 | 0.0 | 0.0 | 0.00 | 0.00 | 0.00 | 22 | 1019.3 |
| 20260509031139 | 18 | 313 | 0.0 | 1.6 | 0.00 | 0.00 | 0.00 | 22 | 1019.2 |
| 20260509030633 | 18 | 293 | 0.0 | 6.4 | 0.00 | 0.00 | 0.00 | 21 | 1019.2 |
| 20260509030131 | 18 | 328 | 3.2 | 6.4 | 0.00 | 0.00 | 0.00 | 21 | 1019.2 |
| 20260509025624 | 18 | 335 | 1.6 | 6.4 | 0.00 | 0.00 | 0.00 | 21 | 1019.1 |
| 20260509025137 | 18 | 343 | 1.6 | 4.8 | 0.00 | 0.00 | 0.00 | 21 | 1019.0 |
| 20260509024632 | 18 | 326 | 1.6 | 9.7 | 0.00 | 0.00 | 0.00 | 20 | 1018.9 |
| 20260509024125 | 19 | 263 | 3.2 | 9.7 | 0.00 | 0.00 | 0.00 | 20 | 1018.9 |
| 20260509023637 | 19 | 315 | 3.2 | 12.9 | 0.00 | 0.00 | 0.00 | 20 | 1018.9 |
| 20260509023151 | 19 | 51 | 3.2 | 12.9 | 0.00 | 0.00 | 0.00 | 20 | 1018.8 |
| 20260509022625 | 19 | 350 | 4.8 | 12.9 | 0.00 | 0.00 | 0.00 | 19 | 1018.7 |
| 20260509022123 | 19 | 78 | 3.2 | 12.9 | 0.00 | 0.00 | 0.00 | 20 | 1018.6 |
| 20260509021637 | 19 | 29 | 4.8 | 11.3 | 0.00 | 0.00 | 0.00 | 19 | 1018.5 |
| 20260509021132 | 19 | 14 | 3.2 | 6.4 | 0.00 | 0.00 | 0.00 | 19 | 1018.5 |
| 20260509020626 | 20 | 327 | 1.6 | 4.8 | 0.00 | 0.00 | 0.00 | 20 | 1018.4 |
| 20260509020139 | 20 | 15 | 0.0 | 4.8 | 0.00 | 0.00 | 0.00 | 19 | 1018.3 |
| 20260509015634 | 20 | 333 | 3.2 | 4.8 | 0.00 | 0.00 | 0.00 | 19 | 1018.2 |
| 20260509015126 | 20 | 21 | 1.6 | 6.4 | 0.00 | 0.00 | 0.00 | 18 | 1018.1 |
| 20260509014641 | 20 | 341 | 1.6 | 11.3 | 0.00 | 0.00 | 0.00 | 18 | 1018.1 |
| 20260509014138 | 20 | 355 | 4.8 | 11.3 | 0.00 | 0.00 | 0.00 | 18 | 1018.0 |
| 20260509013633 | 20 | 96 | 1.6 | 3.2 | 0.00 | 0.00 | 0.00 | 17 | 1018.0 |
| 20260509013127 | 21 | 265 | 0.0 | 3.2 | 0.00 | 0.00 | 0.00 | 17 | 1017.9 |
| 20260509012641 | 21 | 265 | 0.0 | 4.8 | 0.00 | 0.00 | 0.00 | 16 | 1017.7 |
| 20260509012154 | 21 | 265 | 0.0 | 6.4 | 0.00 | 0.00 | 0.00 | 16 | 1017.7 |
| 20260509011626 | 21 | 101 | 1.6 | 6.4 | 0.00 | 0.00 | 0.00 | 16 | 1017.6 |
| 20260509011140 | 21 | 94 | 1.6 | 6.4 | 0.00 | 0.00 | 0.00 | 16 | 1017.6 |
| 20260509010634 | 21 | 33 | 1.6 | 6.4 | 0.00 | 0.00 | 0.00 | 16 | 1017.7 |
| 20260509010133 | 21 | 19 | 3.2 | 6.4 | 0.00 | 0.00 | 0.00 | 15 | 1017.6 |
| 20260509005627 | 22 | 351 | 3.2 | 4.8 | 0.00 | 0.00 | 0.00 | 15 | 1017.6 |
| 20260509005141 | 22 | 246 | 1.6 | 8.0 | 0.00 | 0.00 | 0.00 | 15 | 1017.6 |
| 20260509004634 | 22 | 320 | 4.8 | 8.0 | 0.00 | 0.00 | 0.00 | 15 | 1017.6 |
| 20260509004146 | 22 | 78 | 3.2 | 16.1 | 0.00 | 0.00 | 0.00 | 15 | 1017.5 |
| 20260509003640 | 22 | 60 | 4.8 | 16.1 | 0.00 | 0.00 | 0.00 | 14 | 1017.5 |
| 20260509003134 | 22 | 329 | 3.2 | 9.7 | 0.00 | 0.00 | 0.00 | 15 | 1017.6 |
| 20260509002648 | 22 | 323 | 1.6 | 12.9 | 0.00 | 0.00 | 0.00 | 15 | 1017.5 |
| 20260509002141 | 22 | 41 | 4.8 | 12.9 | 0.00 | 0.00 | 0.00 | 15 | 1017.6 |
| 20260509001655 | 23 | 42 | 3.2 | 8.0 | 0.00 | 0.00 | 0.00 | 15 | 1017.6 |
| 20260509001131 | 23 | 311 | 3.2 | 9.7 | 0.00 | 0.00 | 0.00 | 15 | 1017.6 |
| 20260509000625 | 23 | 17 | 3.2 | 9.7 | 0.00 | 0.00 | 0.00 | 15 | 1017.5 |
| 20260509000200 | 23 | 324 | 3.2 | 12.9 | 0.00 | 0.00 | 0.00 | 15 | 1017.4 |
| 20260508235653 | 23 | 236 | 3.2 | 12.9 | 0.00 | 0.00 | 0.00 | 14 | 1017.4 |
| 20260508235126 | 23 | 240 | 3.2 | 12.9 | 0.00 | 0.00 | 0.00 | 14 | 1017.4 |
| 20260508234700 | 23 | 328 | 4.8 | 12.9 | 0.00 | 0.00 | 0.00 | 15 | 1017.5 |
| 20260508234133 | 23 | 229 | 4.8 | 8.0 | 0.00 | 0.00 | 0.00 | 14 | 1017.3 |
| 20260508233627 | 23 | 202 | 4.8 | 11.3 | 0.00 | 0.00 | 0.00 | 15 | 1017.5 |
| 20260508233141 | 23 | 258 | 3.2 | 11.3 | 0.00 | 0.00 | 0.00 | 16 | 1017.3 |
| 20260508232635 | 23 | 203 | 4.8 | 11.3 | 0.00 | 0.00 | 0.00 | 16 | 1017.4 |
| 20260508232132 | 23 | 115 | 4.8 | 11.3 | 0.00 | 0.00 | 0.00 | 16 | 1017.3 |
| 20260508231627 | 23 | 154 | 4.8 | 11.3 | 0.00 | 0.00 | 0.00 | 16 | 1017.3 |
| 20260508231141 | 23 | 252 | 1.6 | 4.8 | 0.00 | 0.00 | 0.00 | 16 | 1017.2 |
| 20260508230655 | 23 | 122 | 1.6 | 4.8 | 0.00 | 0.00 | 0.00 | 16 | 1017.2 |
| 20260508230128 | 23 | 158 | 0.0 | 6.4 | 0.00 | 0.00 | 0.00 | 16 | 1017.2 |
| 20260508225640 | 23 | 142 | 3.2 | 6.4 | 0.00 | 0.00 | 0.00 | 16 | 1017.2 |
| 20260508225134 | 23 | 146 | 3.2 | 6.4 | 0.00 | 0.00 | 0.00 | 17 | 1017.2 |
| 20260508224627 | 23 | 340 | 1.6 | 8.0 | 0.00 | 0.00 | 0.00 | 17 | 1017.3 |
| 20260508224125 | 23 | 150 | 3.2 | 8.0 | 0.00 | 0.00 | 0.00 | 17 | 1017.4 |
| 20260508223640 | 22 | 127 | 1.6 | 8.0 | 0.00 | 0.00 | 0.00 | 17 | 1017.4 |
| 20260508223153 | 22 | 341 | 3.2 | 8.0 | 0.00 | 0.00 | 0.00 | 17 | 1017.4 |
| 20260508222625 | 22 | 149 | 3.2 | 4.8 | 0.00 | 0.00 | 0.00 | 17 | 1017.6 |
| 20260508222139 | 22 | 86 | 0.0 | 6.4 | 0.00 | 0.00 | 0.00 | 17 | 1017.6 |
| 20260508221653 | 22 | 86 | 3.2 | 6.4 | 0.00 | 0.00 | 0.00 | 17 | 1017.6 |
| 20260508221125 | 22 | 128 | 1.6 | 11.3 | 0.00 | 0.00 | 0.00 | 17 | 1017.7 |
| 20260508220639 | 22 | 97 | 4.8 | 11.3 | 0.00 | 0.00 | 0.00 | 16 | 1017.6 |
| 20260508220151 | 23 | 161 | 3.2 | 11.3 | 0.00 | 0.00 | 0.00 | 16 | 1017.7 |
| 20260508215645 | 23 | 120 | 3.2 | 19.3 | 0.00 | 0.00 | 0.00 | 16 | 1017.8 |
| 20260508215157 | 23 | 157 | 1.6 | 14.5 | 0.00 | 0.00 | 0.00 | 17 | 1017.8 |
| 20260508214649 | 23 | 150 | 4.8 | 9.7 | 0.00 | 0.00 | 0.00 | 17 | 1017.8 |
| 20260508214125 | 23 | 152 | 1.6 | 8.0 | 0.00 | 0.00 | 0.00 | 16 | 1017.8 |
| 20260508213636 | 23 | 87 | 1.6 | 11.3 | 0.00 | 0.00 | 0.00 | 17 | 1017.8 |
| 20260508213131 | 23 | 86 | 3.2 | 14.5 | 0.00 | 0.00 | 0.00 | 17 | 1017.8 |
| 20260508212644 | 23 | 74 | 3.2 | 14.5 | 0.00 | 0.00 | 0.00 | 16 | 1017.8 |
| 20260508212137 | 23 | 340 | 1.6 | 11.3 | 0.00 | 0.00 | 0.00 | 17 | 1018.0 |
| 20260508211630 | 23 | 327 | 3.2 | 6.4 | 0.00 | 0.00 | 0.00 | 16 | 1017.9 |
| 20260508211124 | 23 | 5 | 3.2 | 9.7 | 0.00 | 0.00 | 0.00 | 16 | 1018.0 |
| 20260508210657 | 23 | 247 | 3.2 | 9.7 | 0.00 | 0.00 | 0.00 | 16 | 1018.1 |
| 20260508210130 | 24 | 318 | 3.2 | 11.3 | 0.00 | 0.00 | 0.00 | 16 | 1018.2 |
| 20260508205627 | 24 | 355 | 3.2 | 11.3 | 0.00 | 0.00 | 0.00 | 17 | 1018.2 |
| 20260508205141 | 23 | 59 | 3.2 | 14.5 | 0.00 | 0.00 | 0.00 | 17 | 1018.2 |
| 20260508204634 | 23 | 63 | 6.4 | 14.5 | 0.00 | 0.00 | 0.00 | 16 | 1018.2 |
| 20260508204148 | 23 | 152 | 4.8 | 11.3 | 0.00 | 0.00 | 0.00 | 16 | 1018.3 |
| 20260508203641 | 24 | 261 | 3.2 | 11.3 | 0.00 | 0.00 | 0.00 | 16 | 1018.5 |
| 20260508203134 | 23 | 101 | 3.2 | 8.0 | 0.00 | 0.00 | 0.00 | 16 | 1018.5 |
| 20260508202627 | 23 | 154 | 4.8 | 16.1 | 0.00 | 0.00 | 0.00 | 17 | 1018.5 |
| 20260508202140 | 23 | 294 | 8.0 | 16.1 | 0.00 | 0.00 | 0.00 | 17 | 1018.7 |
| 20260508201634 | 23 | 107 | 3.2 | 16.1 | 0.00 | 0.00 | 0.00 | 17 | 1018.7 |
| 20260508201132 | 23 | 149 | 6.4 | 16.1 | 0.00 | 0.00 | 0.00 | 16 | 1018.8 |
| 20260508200625 | 23 | 130 | 6.4 | 16.1 | 0.00 | 0.00 | 0.00 | 16 | 1018.8 |
| 20260508200159 | 22 | 157 | 3.2 | 12.9 | 0.00 | 0.00 | 0.00 | 17 | 1018.8 |
| 20260508195631 | 23 | 31 | 3.2 | 16.1 | 0.00 | 0.00 | 0.00 | 17 | 1019.0 |
| 20260508195125 | 22 | 155 | 4.8 | 16.1 | 0.00 | 0.00 | 0.00 | 17 | 1019.0 |
| 20260508194638 | 22 | 131 | 8.0 | 14.5 | 0.00 | 0.00 | 0.00 | 17 | 1019.0 |
| 20260508194133 | 22 | 159 | 3.2 | 17.7 | 0.00 | 0.00 | 0.00 | 18 | 1019.1 |
| 20260508193626 | 22 | 171 | 3.2 | 11.3 | 0.00 | 0.00 | 0.00 | 17 | 1019.2 |
| 20260508193143 | 22 | 254 | 4.8 | 12.9 | 0.00 | 0.00 | 0.00 | 17 | 1019.2 |
| 20260508192657 | 22 | 161 | 3.2 | 12.9 | 0.00 | 0.00 | 0.00 | 17 | 1019.1 |
| 20260508192128 | 22 | 135 | 4.8 | 14.5 | 0.00 | 0.00 | 0.00 | 17 | 1019.2 |
| 20260508191643 | 22 | 142 | 4.8 | 14.5 | 0.00 | 0.00 | 0.00 | 17 | 1019.2 |
| 20260508191136 | 22 | 188 | 3.2 | 9.7 | 0.00 | 0.00 | 0.00 | 18 | 1019.4 |
| 20260508190629 | 22 | 46 | 1.6 | 12.9 | 0.00 | 0.00 | 0.00 | 18 | 1019.3 |
| 20260508190142 | 22 | 112 | 3.2 | 11.3 | 0.00 | 0.00 | 0.00 | 18 | 1019.4 |
| 20260508185636 | 22 | 83 | 3.2 | 11.3 | 0.00 | 0.00 | 0.00 | 18 | 1019.5 |
| 20260508185133 | 22 | 53 | 4.8 | 12.9 | 0.00 | 0.00 | 0.00 | 19 | 1019.4 |
| 20260508184627 | 21 | 203 | 4.8 | 14.5 | 0.00 | 0.00 | 0.00 | 18 | 1019.7 |
| 20260508184140 | 21 | 119 | 4.8 | 14.5 | 0.00 | 0.00 | 0.00 | 19 | 1019.7 |
| 20260508183634 | 21 | 167 | 3.2 | 8.0 | 0.00 | 0.00 | 0.00 | 17 | 1019.7 |
| 20260508183126 | 21 | 262 | 4.8 | 14.5 | 0.00 | 0.00 | 0.00 | 18 | 1019.8 |
| 20260508182640 | 21 | 192 | 6.4 | 16.1 | 0.00 | 0.00 | 0.00 | 18 | 1019.9 |
| 20260508182154 | 21 | 90 | 6.4 | 16.1 | 0.00 | 0.00 | 0.00 | 18 | 1019.8 |
| 20260508181625 | 21 | 68 | 6.4 | 11.3 | 0.00 | 0.00 | 0.00 | 19 | 1019.9 |